Tracking 19477 objects as of 16-Jan-2019
HD Live streaming from Space Station
objects crossing your sky now

OPS 9441 (DSCS 2-11)

Track OPS 9441 (DSCS 2-11) now!
OPS 9441 (DSCS 2-11) is classified as:


NORAD ID: 11144
Int'l Code: 1978-113A
Perigee: 37,545.5 km
Apogee: 37,732.2 km
Inclination: 15.7 °
Period: 1,531.4 minutes
Semi major axis: 44009 km
RCS: 5.1357 m2 (large)
Launch date: December 14, 1978
Source: United States (US)
Launch site: AIR FORCE EASTERN TEST RANGE (AFETR)
aabbcc
Your satellite tracking list
Your tracking list is empty




NASA's NSSDC Master Catalog

Two Line Element Set (TLE):
1 11144U 78113A   19015.54883056 -.00000102 +00000-0 +00000-0 0  9990
2 11144 015.6870 336.4932 0021206 132.3262 237.4944 00.94032466086078
Source of the keplerian elements: AFSPC